Location: Newark
(42.8481°N, 0.4872°E)
Time: 16:15:44
(UTC+00:00)

Vanguard 3 - Pass Details

Date: 31 October 2020
Orbit: 508 x 3262 km, 33.3° (Epoch: 28 November)

Event Time Altitude Azimuth Distance (km) Brightness Sun altitude
Rises 09:50:39 0° 278° (W) 7,150 11.6 27.4°
Reaches altitude 10° 09:55:44 10° 273° (W) 6,199 11.4 27.9°
Maximum altitude 10:13:28 43° 211° (SSW) 3,709 11.3 29.4°
Drops below altitude 10° 10:26:57 10° 146° (SE) 4,767 12.5 30.3°
Sets 10:30:19 0° 139° (SE) 5,434 12.4 30.5°
